[[{"header":{"parameterUnit":"m.s-1","parameterCategory":2,"la1":30.2991,"la2":30.254,"lo1":-89.0895,"lo2":-89.0444,"dy":0.0017,"dx":0.0017,"nx":28,"ny":28,"refTime":"2025-07-24T09:00:00:Z","depth":"0","parameterNumber":2,"parameterNumberName":"U-component_of_CURRENTS"},"data":[0,0,0,0,0,0,0,0,0,0,0,0,0,0,0,0,0,0,0,0,0,0,0,0,0,0,0,0,0,0,0,0,0,0,0,0,0,0,0,0,0,0,0,0,0,0,0,0,0,0,0,0,0,0,0,0,0,0,-0.3255,-0.326,0,-0.3629,-0.3632,-0.3635,-0.3857,-0.3859,-0.3862,-0.3864,-0.4051,-0.4054,-0.4057,0,0,0,0,0,0,0,0,0,0,0,0,0,-0.2878,-0.2881,-0.3254,-0.3261,-0.3267,-0.3628,-0.3632,-0.3636,-0.3856,-0.3859,-0.3862,-0.3865,-0.405,-0.4054,-0.4057,0,0,0,0,0,0,0,0,0,0,0,0,0,-0.311,-0.2882,-0.3253,-0.3432,-0.3453,-0.3628,-0.3632,-0.3637,-0.3856,-0.3859,-0.3863,-0.3866,-0.4049,-0.4053,-0.4057,-0.4011,0,0,-0.407,-0.4072,0,0,0,0,0,0,0,0,-0.3096,-0.3121,-0.3399,-0.342,-0.3444,-0.3714,-0.357,-0.3758,-0.3855,-0.3686,-0.3864,-0.3868,-0.3928,-0.3943,-0.3986,-0.402,-0.4028,-0.407,-0.4073,-0.4075,-0.4076,0,0,0,0,0,0,0,-0.308,-0.3108,-0.3387,-0.3406,-0.3433,-0.3545,-0.3579,-0.3606,-0.3767,-0.3701,-0.3722,-0.3787,-0.3938,-0.3981,-0.3991,-0.4031,-0.407,-0.4074,-0.4077,-0.4078,-0.3993,-0.3989,0,0,0,0,0,0,-0.3054,-0.3091,-0.3375,-0.34,-0.3293,-0.3549,-0.3586,-0.3611,-0.3772,-0.3806,-0.3784,-0.3797,-0.3972,-0.3986,-0.3999,-0.3959,-0.4075,-0.4079,-0.4081,-0.3998,-0.3992,-0.3987,0,0,0,0,0,0,-0.3043,-0.3073,-0.3361,-0.3269,-0.3316,-0.3552,-0.3578,-0.3616,-0.3669,-0.3839,-0.3867,-0.38,-0.3976,-0.3993,-0.3975,-0.3968,-0.408,-0.4084,-0.4003,-0.3996,-0.3989,-0.3875,0,0,0,0,0,0,-0.3029,-0.3065,-0.3048,-0.3266,-0.3321,-0.3425,-0.3577,-0.3622,-0.3712,-0.3731,-0.3861,-0.3884,-0.398,-0.3967,-0.3979,-0.3976,-0.4087,-0.4009,-0.4,-0.3992,-0.3885,-0.3865,-0.3848,0,0,0,0,0,-0.3014,-0.2981,-0.3043,-0.3079,-0.3295,-0.3424,-0.3457,-0.3631,-0.3708,-0.3694,-0.3768,-0.388,-0.3921,-0.3965,-0.3981,-0.3979,-0.4014,-0.4003,-0.3992,-0.3893,-0.3869,-0.3848,0,0,0,0,0,0,-0.2835,-0.3009,-0.3081,-0.3109,-0.324,-0.3467,-0.3479,-0.3602,-0.3656,-0.3658,-0.381,-0.3832,-0.3825,-0.3873,-0.392,-0.3915,-0.3988,-0.398,-0.3908,-0.3886,-0.3867,-0.3854,-0.4091,0,0,0,0,0,-0.2779,-0.2786,-0.2984,-0.3007,-0.3047,-0.3249,-0.332,-0.3435,-0.3542,-0.3575,-0.3679,-0.3746,-0.3787,-0.3812,-0.3849,-0.3829,-0.3827,-0.383,-0.3812,-0.3797,-0.3786,-0.3742,-0.372,-0.3952,-0.3952,-0.3952,0,0,-0.2735,-0.2824,-0.284,-0.2967,-0.307,-0.3136,-0.3293,-0.3371,-0.3432,-0.3573,-0.3621,-0.3679,-0.3758,-0.3757,-0.3758,-0.3805,-0.3714,-0.3783,-0.3771,-0.3768,-0.3729,-0.3707,-0.3687,-0.3945,-0.3946,-0.3947,0,0,-0.2668,-0.2695,-0.2695,-0.277,-0.291,-0.3018,-0.3028,-0.3216,-0.328,-0.3328,-0.3443,-0.3469,-0.3553,-0.3616,-0.3658,-0.3535,-0.3612,-0.3553,-0.3471,-0.3428,-0.341,-0.3394,-0.3314,-0.3293,-0.3553,-0.3553,-0.3553,0,-0.2611,-0.2652,-0.2715,-0.2743,-0.2816,-0.2953,-0.2997,-0.3059,-0.3226,-0.3255,-0.331,-0.3412,-0.3493,-0.3505,-0.3489,-0.3506,-0.3472,-0.3569,-0.3409,-0.3394,-0.338,-0.3302,-0.328,-0.3546,-0.3547,-0.3548,-0.3548,0,-0.2582,-0.2606,-0.2596,-0.2672,-0.2723,-0.2765,-0.2883,-0.2909,-0.3001,-0.3103,-0.3119,-0.32,-0.328,-0.3302,-0.3382,-0.3327,-0.3328,-0.339,-0.3481,-0.335,-0.3275,-0.3254,-0.3537,-0.3539,-0.3541,-0.3543,0,0,-0.2499,-0.2569,-0.2571,-0.2607,-0.2693,-0.2747,-0.2757,-0.2841,-0.2871,-0.2938,-0.298,-0.3037,-0.3091,-0.3133,-0.3213,-0.3186,-0.3073,-0.3246,-0.3247,-0.3191,-0.293,-0.2859,-0.283,-0.3111,-0.3108,-0.3105,-0.29,0,-0.2481,-0.2515,-0.2558,-0.2594,-0.2624,-0.2698,-0.2718,-0.2778,-0.2835,-0.2873,-0.2906,-0.296,-0.3021,-0.3072,-0.3037,-0.3103,-0.3018,-0.3119,-0.3042,-0.3039,-0.3015,-0.2805,-0.2728,-0.2534,-0.2881,-0.2877,-0.2875,0,-0.2459,-0.2489,-0.252,-0.2585,-0.2601,-0.2627,-0.2673,-0.2714,-0.2743,-0.2787,-0.279,-0.2846,-0.2837,-0.2905,-0.2841,-0.2903,-0.2881,-0.289,-0.2884,-0.285,-0.2929,-0.2725,-0.2484,-0.2487,-0.2843,-0.2846,-0.2848,0,-0.2402,-0.2464,-0.2488,-0.2512,-0.2589,-0.26,-0.2639,-0.2679,-0.2714,-0.2724,-0.2751,-0.2723,-0.2752,-0.2698,-0.2737,-0.2783,-0.2641,-0.2719,-0.2588,-0.2583,-0.2518,-0.2512,-0.2297,-0.2585,-0.2586,-0.2587,-0.2587,0,-0.2375,-0.239,-0.2461,-0.2473,-0.2494,-0.2557,-0.2577,-0.2609,-0.2652,-0.2666,-0.2699,-0.2694,-0.2706,-0.266,-0.2653,-0.2538,-0.2558,-0.2505,-0.2505,-0.2466,-0.2459,-0.2466,-0.2526,-0.2579,-0.2581,-0.2582,-0.2583,0,-0.2302,-0.2357,-0.2381,-0.2448,-0.2467,-0.2474,-0.2553,-0.2586,-0.2617,-0.2632,-0.2637,-0.2656,-0.2582,-0.2551,-0.2481,-0.244,-0.2308,-0.2299,-0.2231,-0.2225,-0.2105,-0.2162,-0.1955,-0.1894,-0.2084,-0.208,-0.2078,0,-0.2265,-0.2271,-0.2336,-0.2368,-0.2395,-0.2432,-0.2482,-0.2549,-0.2595,-0.2603,-0.2614,-0.2545,-0.247,-0.2306,-0.2224,-0.2081,-0.2145,-0.1943,-0.2013,-0.2011,-0.2077,-0.2139,-0.211,-0.1859,-0.1854,-0.1851,-0.1848,0,-0.2179,-0.2201,-0.2228,-0.2313,-0.2365,-0.2392,-0.246,-0.2468,-0.254,-0.2539,-0.2479,-0.2394,-0.2245,-0.2071,-0.1918,-0.1844,-0.1912,-0.1863,-0.1881,-0.186,-0.1892,-0.1866,-0.2076,-0.1817,-0.182,-0.1822,-0.1824,-0.1825,-0.21,-0.2124,-0.2198,-0.2249,-0.2314,-0.2317,-0.2215,-0.2287,-0.2263,-0.2112,-0.2268,-0.2047,-0.2025,-0.1782,-0.1694,-0.1558,-0.1638,-0.1541,-0.1596,-0.1647,-0.1617,-0.1726,-0.1479,-0.148,-0.1481,-0.1482,-0.1483,0,-0.2071,-0.2103,-0.2153,-0.2175,-0.2142,-0.2207,-0.2182,-0.2019,-0.1851,-0.1788,-0.1681,-0.1672,-0.156,-0.1509,-0.1436,-0.1348,-0.1333,-0.1328,-0.1412,-0.1384,-0.147,-0.1492,-0.1214,-0.1214,-0.1214,-0.1214,-0.1214,-0.1214,-0.2064,-0.2117,-0.2147,-0.2009,-0.1961,-0.1792,-0.1672,-0.1476,-0.1351,-0.1102,-0.0992,-0.0955,-0.1188,-0.1465,-0.1399,-0.1313,-0.1308,-0.1255,-0.1282,-0.1398,-0.1425,-0.145,-0.148,-0.1204,-0.1204,-0.1148,-0.1148,-0.1148]},{"header":{"parameterUnit":"m.s-1","parameterCategory":2,"la1":30.2991,"la2":30.254,"lo1":-89.0895,"lo2":-89.0444,"dy":0.0017,"dx":0.0017,"nx":28,"ny":28,"refTime":"2025-07-24T09:00:00:Z","depth":"0","parameterNumber":3,"parameterNumberName":"V-component_of_CURRENTS"},"data":[0,0,0,0,0,0,0,0,0,0,0,0,0,0,0,0,0,0,0,0,0,0,0,0,0,0,0,0,0,0,0,0,0,0,0,0,0,0,0,0,0,0,0,0,0,0,0,0,0,0,0,0,0,0,0,0,0,0,-0.0474,-0.0472,0,-0.0256,-0.0253,-0.025,-0.0084,-0.0083,-0.0082,-0.0081,0.0321,0.0331,0.034,0,0,0,0,0,0,0,0,0,0,0,0,0,-0.0602,-0.0601,-0.0474,-0.0472,-0.047,-0.0257,-0.0253,-0.025,-0.0084,-0.0083,-0.0082,-0.0081,0.0318,0.033,0.0341,0,0,0,0,0,0,0,0,0,0,0,0,0,-0.0477,-0.06,-0.0475,-0.0365,-0.0354,-0.0257,-0.0253,-0.0249,-0.0085,-0.0083,-0.0081,-0.008,0.0314,0.0329,0.0343,0.0401,0,0,0.0387,0.0394,0,0,0,0,0,0,0,0,-0.0485,-0.0472,-0.0384,-0.0373,-0.036,-0.02,-0.0151,-0.0024,-0.0085,-0.0181,-0.0081,-0.0079,0.016,0.0187,0.0229,0.0419,0.0437,0.0389,0.0398,0.0404,0.0408,0,0,0,0,0,0,0,-0.0494,-0.048,-0.0383,-0.0382,-0.0367,-0.0278,-0.0259,-0.0126,-0.0015,-0.0173,-0.0162,-0.0146,0.0168,0.0214,0.024,0.0443,0.0388,0.0401,0.041,0.0416,0.0682,0.0681,0,0,0,0,0,0,-0.054,-0.0489,-0.039,-0.0377,-0.0425,-0.0278,-0.0256,-0.0249,-0.002,0.0013,-0.0148,-0.0139,0.0189,0.0223,0.0255,0.03,0.0404,0.0417,0.0426,0.0684,0.0682,0.068,0,0,0,0,0,0,-0.0544,-0.0534,-0.0399,-0.0431,-0.0408,-0.0279,-0.027,-0.0246,-0.0198,-0.0004,0.0034,-0.0127,0.0191,0.0235,0.035,0.0319,0.0424,0.0437,0.0686,0.0683,0.0681,0.0415,0,0,0,0,0,0,-0.0549,-0.0537,-0.0543,-0.0435,-0.0408,-0.0361,-0.0272,-0.0243,-0.0194,-0.018,0.0026,0.0065,0.0196,0.0326,0.0364,0.0341,0.0449,0.0688,0.0685,0.0682,0.0426,0.0404,0.0385,0,0,0,0,0,-0.0554,-0.0566,-0.0545,-0.0532,-0.0423,-0.0363,-0.0341,-0.0238,-0.0195,-0.0187,-0.0059,0.0059,0.0333,0.0337,0.0381,0.0362,0.069,0.0686,0.0682,0.0435,0.0408,0.0386,0,0,0,0,0,0,-0.0612,-0.0548,-0.0522,-0.0511,-0.0457,-0.0337,-0.0313,-0.0257,-0.015,-0.0128,0.0049,0.0096,0.0184,0.0306,0.0305,0.0427,0.0527,0.0532,0.0324,0.0301,0.0281,0.0298,0.0461,0,0,0,0,0,-0.0638,-0.0633,-0.0561,-0.0553,-0.0534,-0.0433,-0.0394,-0.0334,-0.0231,-0.0182,-0.005,0.0091,0.0202,0.0275,0.04,0.0474,0.0585,0.0488,0.0467,0.0448,0.0491,0.0581,0.0572,0.0668,0.0668,0.0668,0,0,-0.0655,-0.0622,-0.0616,-0.0567,-0.0509,-0.0485,-0.0403,-0.0359,-0.0331,-0.0152,-0.0071,0.0032,0.0205,0.0277,0.0328,0.0378,0.0468,0.0444,0.0426,0.0481,0.0576,0.0567,0.0559,0.0665,0.0666,0.0666,0,0,-0.0691,-0.0666,-0.0676,-0.0643,-0.0587,-0.0528,-0.053,-0.0435,-0.0385,-0.0312,-0.019,-0.0117,0.0072,0.0165,0.0243,0.019,0.0353,0.0224,0.0145,0.0227,0.022,0.0216,0.0287,0.0291,0.0215,0.0214,0.0214,0,-0.0713,-0.0717,-0.0668,-0.0669,-0.0642,-0.0561,-0.0559,-0.0503,-0.0385,-0.034,-0.0313,-0.0086,0.0021,0.0125,0.0087,0.0144,0.0226,0.0212,0.0198,0.0197,0.0197,0.0272,0.028,0.0201,0.0203,0.0204,0.0205,0,-0.0755,-0.0755,-0.0758,-0.0736,-0.0706,-0.0692,-0.0624,-0.0587,-0.0531,-0.0461,-0.0365,-0.0244,-0.0098,-0.0094,-0.0014,0.0033,0.0098,0.015,0.0251,0.0171,0.0255,0.0268,0.0182,0.0187,0.0191,0.0194,0,0,-0.0797,-0.0791,-0.079,-0.079,-0.0741,-0.0715,-0.0687,-0.0623,-0.0581,-0.0507,-0.044,-0.0337,-0.0271,-0.0178,-0.0096,-0.0046,-0.004,0.0037,0.0048,0.0093,0.0146,0.0178,0.0197,0.0008,0.001,0.0012,0.0182,0,-0.0839,-0.087,-0.0845,-0.0851,-0.0854,-0.0784,-0.0755,-0.0687,-0.0616,-0.0536,-0.0437,-0.034,-0.0302,-0.0251,-0.0202,-0.0049,-0.0004,-0.0089,0.0237,0.0247,0.0272,0.0214,0.027,0.0428,0.0197,0.0199,0.0201,0,-0.0884,-0.0895,-0.0927,-0.0901,-0.0893,-0.0883,-0.0807,-0.077,-0.0651,-0.0594,-0.0497,-0.0389,-0.0293,-0.0264,-0.0058,-0.0108,0.0002,0.0097,0.0107,0.0262,0.0307,0.0488,0.0463,0.0624,0.0223,0.0222,0.022,0,-0.0937,-0.0944,-0.0974,-0.0969,-0.0932,-0.092,-0.0886,-0.0787,-0.0736,-0.0621,-0.056,-0.0418,-0.0325,-0.0179,-0.0001,-0.0017,0.0234,0.0241,0.0377,0.0381,0.0565,0.0581,0.0737,0.0386,0.0385,0.0385,0.0384,0,-0.0991,-0.1006,-0.1005,-0.1018,-0.1022,-0.0973,-0.0944,-0.0885,-0.0782,-0.0693,-0.0593,-0.0485,-0.0297,-0.0128,0.0012,0.0243,0.025,0.0382,0.0434,0.0466,0.0471,0.0734,0.0788,0.0391,0.039,0.0389,0.0388,0,-0.1041,-0.105,-0.1073,-0.1059,-0.1054,-0.1053,-0.0994,-0.0947,-0.0863,-0.0739,-0.0699,-0.0513,-0.0294,-0.0103,0.016,0.0274,0.059,0.0554,0.0567,0.0616,0.0862,0.0898,0.1166,0.1278,0.073,0.0732,0.0734,0,-0.1071,-0.1096,-0.1109,-0.1116,-0.1115,-0.1105,-0.1075,-0.0998,-0.0912,-0.0731,-0.0642,-0.0441,-0.0243,0.0116,0.0345,0.0604,0.0715,0.0799,0.0767,0.0899,0.098,0.0998,0.1074,0.0892,0.0895,0.0898,0.0899,0,-0.1108,-0.1118,-0.1138,-0.1133,-0.1129,-0.109,-0.1024,-0.0956,-0.081,-0.0674,-0.0425,-0.0277,-0.001,0.0305,0.0571,0.0725,0.0925,0.0852,0.1014,0.1145,0.1162,0.1286,0.074,0.092,0.0918,0.0916,0.0915,0.0914,-0.1121,-0.1142,-0.1137,-0.1094,-0.108,-0.0947,-0.0842,-0.0736,-0.053,-0.0227,-0.0169,0.013,0.033,0.0713,0.0863,0.1169,0.1114,0.1286,0.1326,0.1339,0.143,0.0907,0.1119,0.1119,0.1118,0.1117,0.1117,0,-0.1078,-0.1076,-0.1069,-0.0967,-0.083,-0.0851,-0.0686,-0.0523,-0.02,-0.0042,0.0235,0.0665,0.0952,0.1121,0.1443,0.1638,0.1684,0.174,0.1805,0.1866,0.145,0.1439,0.1701,0.1701,0.1701,0.1701,0.17,0.17,-0.106,-0.1008,-0.0951,-0.0664,-0.0578,-0.0344,-0.0196,-0.0019,0.0134,0.0537,0.0818,0.0987,0.1242,0.1717,0.2035,0.2072,0.2263,0.2238,0.2334,0.2055,0.2016,0.1979,0.1983,0.2355,0.2356,0.2765,0.2769,0.2772]}],[{"header":{"parameterUnit":"m.s-1","parameterCategory":2,"la1":30.2991,"la2":30.254,"lo1":-89.0895,"lo2":-89.0444,"dy":0.0017,"dx":0.0017,"nx":28,"ny":28,"refTime":"2025-07-24T09:00:00:Z","depth":"2","parameterNumber":2,"parameterNumberName":"U-component_of_CURRENTS"},"data":[0,0,0,0,0,0,0,0,0,0,0,0,0,0,0,0,0,0,0,0,0,0,0,0,0,0,0,0,0,0,0,0,0,0,0,0,0,0,0,0,0,0,0,0,0,0,0,0,0,0,0,0,0,0,0,0,0,0,-0.258,-0.2579,0,-0.2549,-0.2548,-0.2547,-0.2579,-0.258,-0.2582,-0.2583,-0.265,-0.2651,-0.2651,0,0,0,0,0,0,0,0,0,0,0,0,0,-0.254,-0.2541,-0.258,-0.2579,-0.2579,-0.2549,-0.2548,-0.2547,-0.2579,-0.2581,-0.2582,-0.2584,-0.265,-0.2651,-0.2651,0,0,0,0,0,0,0,0,0,0,0,0,0,-0.2536,-0.2542,-0.258,-0.2593,-0.2594,-0.2549,-0.2548,-0.2547,-0.2578,-0.2581,-0.2583,-0.2585,-0.265,-0.2651,-0.2651,-0.261,0,0,-0.2653,-0.2653,0,0,0,0,0,0,0,0,-0.2536,-0.2537,-0.2591,-0.2592,-0.2593,-0.2572,-0.2559,-0.2574,-0.2578,-0.2582,-0.2583,-0.2586,-0.2634,-0.2636,-0.2619,-0.2614,-0.2616,-0.2653,-0.2654,-0.2654,-0.2654,0,0,0,0,0,0,0,-0.2537,-0.2538,-0.2565,-0.2591,-0.2592,-0.2558,-0.2561,-0.2561,-0.2595,-0.2581,-0.2584,-0.2584,-0.2635,-0.2619,-0.2622,-0.2617,-0.2653,-0.2654,-0.2654,-0.2654,-0.2574,-0.2572,0,0,0,0,0,0,-0.255,-0.2539,-0.2566,-0.2564,-0.2573,-0.2558,-0.256,-0.2575,-0.2593,-0.2598,-0.2583,-0.2586,-0.2617,-0.2621,-0.2624,-0.2629,-0.2654,-0.2654,-0.2655,-0.2576,-0.2573,-0.2571,0,0,0,0,0,0,-0.255,-0.2553,-0.2567,-0.2552,-0.2552,-0.2557,-0.2572,-0.2573,-0.2572,-0.2593,-0.26,-0.2583,-0.2618,-0.2624,-0.2614,-0.263,-0.2655,-0.2655,-0.2579,-0.2575,-0.2572,-0.2605,0,0,0,0,0,0,-0.2549,-0.2554,-0.2553,-0.2553,-0.2553,-0.2548,-0.257,-0.2571,-0.2569,-0.2574,-0.2596,-0.2603,-0.2621,-0.2612,-0.2614,-0.2632,-0.2656,-0.2583,-0.2578,-0.2573,-0.2607,-0.2603,-0.26,0,0,0,0,0,-0.2548,-0.253,-0.2554,-0.2556,-0.2558,-0.2547,-0.2543,-0.2552,-0.2567,-0.256,-0.2562,-0.2603,-0.2584,-0.261,-0.2613,-0.2632,-0.2585,-0.2579,-0.2574,-0.2609,-0.2604,-0.26,0,0,0,0,0,0,-0.25,-0.2532,-0.2558,-0.255,-0.2558,-0.2554,-0.2535,-0.255,-0.2542,-0.255,-0.2574,-0.2579,-0.258,-0.2575,-0.2603,-0.2583,-0.259,-0.2584,-0.2616,-0.2611,-0.2607,-0.2644,-0.2656,0,0,0,0,0,-0.2495,-0.2498,-0.2526,-0.2516,-0.2523,-0.2532,-0.2524,-0.2541,-0.2539,-0.2539,-0.2551,-0.255,-0.255,-0.2559,-0.2552,-0.2541,-0.253,-0.2545,-0.2541,-0.2539,-0.2563,-0.2541,-0.2539,-0.2552,-0.2552,-0.2552,0,0,-0.2469,-0.2488,-0.2487,-0.2507,-0.251,-0.2522,-0.2532,-0.2527,-0.2544,-0.2547,-0.2551,-0.2542,-0.2539,-0.2532,-0.2531,-0.254,-0.2516,-0.2532,-0.2531,-0.2556,-0.2535,-0.2534,-0.2534,-0.2548,-0.2549,-0.255,0,0,-0.2427,-0.2445,-0.2444,-0.246,-0.2481,-0.2494,-0.25,-0.2509,-0.252,-0.2516,-0.2523,-0.2518,-0.2508,-0.2518,-0.2521,-0.2482,-0.2495,-0.247,-0.2496,-0.2474,-0.2475,-0.2475,-0.2423,-0.2419,-0.2472,-0.2472,-0.2472,0,-0.2397,-0.2417,-0.2435,-0.2449,-0.2461,-0.2491,-0.2502,-0.2513,-0.2516,-0.252,-0.2523,-0.2502,-0.251,-0.2516,-0.2509,-0.2485,-0.2457,-0.2529,-0.2476,-0.2476,-0.2477,-0.2424,-0.2419,-0.2473,-0.2473,-0.2473,-0.2473,0,-0.2375,-0.2394,-0.2387,-0.2435,-0.2444,-0.245,-0.2491,-0.2497,-0.2514,-0.2526,-0.2525,-0.2515,-0.2509,-0.2504,-0.2509,-0.2508,-0.248,-0.2478,-0.2507,-0.2479,-0.2422,-0.2417,-0.2474,-0.2474,-0.2474,-0.2473,0,0,-0.2309,-0.2365,-0.2367,-0.2394,-0.2444,-0.2448,-0.2479,-0.2508,-0.2523,-0.253,-0.2533,-0.2542,-0.2538,-0.2538,-0.2533,-0.2529,-0.25,-0.2513,-0.2511,-0.2495,-0.2425,-0.233,-0.2315,-0.2493,-0.2493,-0.2493,-0.2374,0,-0.2293,-0.232,-0.2355,-0.2382,-0.2402,-0.2447,-0.2469,-0.2501,-0.2519,-0.2523,-0.2537,-0.2532,-0.2551,-0.2542,-0.2546,-0.2515,-0.2492,-0.2532,-0.2426,-0.2423,-0.2372,-0.2308,-0.2164,-0.204,-0.2368,-0.2367,-0.2367,0,-0.2272,-0.2297,-0.2321,-0.2375,-0.2386,-0.2405,-0.2445,-0.2471,-0.2501,-0.2511,-0.2525,-0.2527,-0.2536,-0.2541,-0.2506,-0.2528,-0.2484,-0.2458,-0.2452,-0.2362,-0.2319,-0.2123,-0.2018,-0.2358,-0.2358,-0.2359,-0.236,0,-0.2223,-0.2274,-0.2292,-0.2311,-0.2373,-0.2385,-0.2415,-0.2456,-0.2473,-0.2497,-0.2496,-0.2511,-0.25,-0.248,-0.2447,-0.2469,-0.2384,-0.2395,-0.2263,-0.2254,-0.2111,-0.209,-0.2354,-0.2354,-0.2354,-0.2355,-0.2355,0,-0.2197,-0.2209,-0.2269,-0.2279,-0.2294,-0.235,-0.2364,-0.2397,-0.2433,-0.2433,-0.2481,-0.2471,-0.2488,-0.2449,-0.2423,-0.2317,-0.2355,-0.2258,-0.2219,-0.2108,-0.209,-0.2363,-0.2366,-0.235,-0.2351,-0.2352,-0.2353,0,-0.2134,-0.218,-0.2198,-0.2255,-0.227,-0.2276,-0.233,-0.2337,-0.2386,-0.2385,-0.2389,-0.2425,-0.2368,-0.2353,-0.2292,-0.2257,-0.2181,-0.2127,-0.1984,-0.1931,-0.2069,-0.2075,-0.1964,-0.196,-0.1957,-0.1953,-0.1951,0,-0.2101,-0.2105,-0.2158,-0.2162,-0.2183,-0.2209,-0.2222,-0.2294,-0.2301,-0.2343,-0.2324,-0.2297,-0.2236,-0.2117,-0.2041,-0.1932,-0.204,-0.1755,-0.1783,-0.2057,-0.2031,-0.2042,-0.2051,-0.1584,-0.1578,-0.1574,-0.1571,0,-0.2024,-0.2044,-0.2058,-0.2058,-0.2071,-0.2087,-0.2112,-0.2116,-0.2183,-0.219,-0.2159,-0.2115,-0.201,-0.1837,-0.172,-0.1655,-0.1769,-0.1661,-0.1964,-0.1716,-0.1691,-0.1668,-0.1691,-0.1532,-0.1535,-0.1538,-0.154,-0.1542,-0.1948,-0.1931,-0.1936,-0.192,-0.1934,-0.191,-0.1875,-0.1917,-0.1901,-0.1868,-0.1943,-0.1832,-0.179,-0.1519,-0.1414,-0.1341,-0.1467,-0.143,-0.1446,-0.1466,-0.1455,-0.1427,-0.1213,-0.1215,-0.1216,-0.1218,-0.1219,0,-0.182,-0.1807,-0.1791,-0.1751,-0.1691,-0.1755,-0.1747,-0.1687,-0.1614,-0.1639,-0.16,-0.1413,-0.1283,-0.1244,-0.1059,-0.1014,-0.1031,-0.0985,-0.1026,-0.1064,-0.1098,-0.1072,-0.0726,-0.0724,-0.0723,-0.0722,0,0,-0.1748,-0.1671,-0.1647,-0.149,-0.147,-0.1351,-0.1315,-0.1275,-0.1255,-0.1173,-0.1136,-0.1225,-0.1212,-0.0985,-0.0914,-0.0791,-0.0922,-0.0745,-0.114,-0.1227,-0.1259,-0.1348,-0.1349,0,0,0,0,0]},{"header":{"parameterUnit":"m.s-1","parameterCategory":2,"la1":30.2991,"la2":30.254,"lo1":-89.0895,"lo2":-89.0444,"dy":0.0017,"dx":0.0017,"nx":28,"ny":28,"refTime":"2025-07-24T09:00:00:Z","depth":"2","parameterNumber":3,"parameterNumberName":"V-component_of_CURRENTS"},"data":[0,0,0,0,0,0,0,0,0,0,0,0,0,0,0,0,0,0,0,0,0,0,0,0,0,0,0,0,0,0,0,0,0,0,0,0,0,0,0,0,0,0,0,0,0,0,0,0,0,0,0,0,0,0,0,0,0,0,-0.0417,-0.0416,0,-0.0309,-0.0308,-0.0307,-0.0252,-0.0252,-0.0252,-0.0252,-0.0056,-0.0051,-0.0046,0,0,0,0,0,0,0,0,0,0,0,0,0,-0.0521,-0.052,-0.0417,-0.0416,-0.0414,-0.0309,-0.0308,-0.0307,-0.0252,-0.0252,-0.0252,-0.0251,-0.0057,-0.0052,-0.0045,0,0,0,0,0,0,0,0,0,0,0,0,0,-0.0452,-0.0519,-0.0418,-0.0373,-0.0368,-0.031,-0.0308,-0.0306,-0.0252,-0.0252,-0.0252,-0.0251,-0.0059,-0.0052,-0.0045,-0.0004,0,0,-0.0022,-0.0018,0,0,0,0,0,0,0,0,-0.0457,-0.0449,-0.0381,-0.0376,-0.037,-0.0292,-0.0273,-0.02,-0.0252,-0.0298,-0.0252,-0.0251,-0.0126,-0.0113,-0.0097,0.0005,0.0013,-0.0021,-0.0016,-0.0013,-0.0011,0,0,0,0,0,0,0,-0.0461,-0.0453,-0.0376,-0.038,-0.0373,-0.0339,-0.033,-0.0259,-0.0215,-0.0294,-0.0289,-0.0275,-0.0122,-0.0104,-0.0092,0.0016,-0.0021,-0.0014,-0.001,-0.0007,0.0168,0.0168,0,0,0,0,0,0,-0.0474,-0.0458,-0.038,-0.0373,-0.0411,-0.0338,-0.0327,-0.0319,-0.0217,-0.0202,-0.0275,-0.0272,-0.0117,-0.01,-0.0084,-0.0026,-0.0013,-0.0006,-0.0002,0.0168,0.0168,0.0168,0,0,0,0,0,0,-0.0477,-0.0469,-0.0384,-0.0411,-0.0398,-0.0337,-0.0327,-0.0317,-0.0297,-0.0203,-0.0186,-0.0266,-0.0117,-0.0095,-0.0028,-0.0018,-0.0003,0.0004,0.0168,0.0168,0.0168,0.0089,0,0,0,0,0,0,-0.0481,-0.0471,-0.0477,-0.0412,-0.0397,-0.0354,-0.0327,-0.0315,-0.0288,-0.0283,-0.0189,-0.0171,-0.0115,-0.004,-0.0021,-0.0007,0.001,0.0168,0.0168,0.0168,0.0092,0.0087,0.0083,0,0,0,0,0,-0.0485,-0.0495,-0.0478,-0.0468,-0.0405,-0.0354,-0.0343,-0.0299,-0.0288,-0.0281,-0.0222,-0.0174,-0.0025,-0.0034,-0.0011,0.0005,0.0167,0.0168,0.0168,0.0094,0.0088,0.0083,0,0,0,0,0,0,-0.0541,-0.0488,-0.0468,-0.0461,-0.0412,-0.0344,-0.0337,-0.0304,-0.0254,-0.0251,-0.0169,-0.0146,-0.0086,-0.0031,-0.0043,0.0055,0.0079,0.0083,0.0015,0.001,0.0005,-0.0017,0.0016,0,0,0,0,0,-0.0557,-0.0552,-0.0488,-0.0481,-0.0463,-0.0402,-0.0379,-0.0345,-0.0288,-0.0267,-0.0201,-0.0132,-0.0067,-0.0024,0.0038,0.0098,0.0146,0.0122,0.0118,0.0113,0.011,0.0182,0.0183,0.0169,0.0169,0.0169,0,0,-0.0574,-0.0546,-0.0541,-0.0493,-0.0456,-0.0433,-0.0388,-0.0356,-0.0332,-0.0251,-0.0207,-0.0145,-0.0058,0.0001,0.0034,0.0051,0.0141,0.0114,0.0109,0.0108,0.0182,0.0184,0.0185,0.0169,0.0169,0.0169,0,0,-0.0603,-0.0583,-0.0587,-0.0554,-0.0503,-0.0462,-0.0455,-0.0387,-0.0357,-0.0302,-0.0244,-0.018,-0.008,-0.0016,0.003,0.0041,0.0108,0.0061,0.0032,0.0101,0.0103,0.0105,0.0157,0.0164,0.0066,0.0066,0.0066,0,-0.0625,-0.0621,-0.0578,-0.0572,-0.055,-0.048,-0.0472,-0.0428,-0.0347,-0.0317,-0.0299,-0.0158,-0.0086,-0.0005,-0.0007,0.0033,0.0072,0.0043,0.0094,0.0097,0.0101,0.0154,0.0163,0.0062,0.0063,0.0063,0.0063,0,-0.0652,-0.0649,-0.0649,-0.0619,-0.0591,-0.0572,-0.0506,-0.0473,-0.0427,-0.0373,-0.0293,-0.0201,-0.0116,-0.0082,-0.0039,0.0024,0.0042,0.0072,0.0103,0.0097,0.0154,0.0164,0.0057,0.0058,0.0059,0.006,0,0,-0.0688,-0.0673,-0.0671,-0.067,-0.0616,-0.0593,-0.0559,-0.0497,-0.0468,-0.0389,-0.0341,-0.0235,-0.0187,-0.0133,-0.0064,-0.0001,0.0055,0.0035,0.0041,0.0077,0.0193,0.0213,0.0227,0.0088,0.009,0.0091,0.0219,0,-0.0717,-0.0734,-0.0708,-0.0707,-0.0707,-0.0644,-0.0616,-0.0552,-0.0486,-0.0424,-0.0321,-0.025,-0.0203,-0.0163,-0.0096,0.0022,0.0081,0.0017,0.0202,0.0208,0.0218,0.024,0.0212,0.0324,0.023,0.0231,0.0233,0,-0.0746,-0.0754,-0.0775,-0.0755,-0.0748,-0.0736,-0.0678,-0.064,-0.0537,-0.0485,-0.0401,-0.0317,-0.021,-0.0175,0.001,-0.0037,0.0062,0.015,0.0158,0.0212,0.0248,0.0319,0.0348,0.0252,0.025,0.0249,0.0248,0,-0.0797,-0.0795,-0.0819,-0.0813,-0.078,-0.0774,-0.0746,-0.0662,-0.0622,-0.0522,-0.0479,-0.0348,-0.0266,-0.0135,0.0038,0.0026,0.0239,0.0254,0.0366,0.0368,0.0401,0.0403,0.0379,0.0378,0.0378,0.0378,0.0377,0,-0.0839,-0.0852,-0.085,-0.0862,-0.0875,-0.0831,-0.0815,-0.0766,-0.0685,-0.063,-0.052,-0.0441,-0.0253,-0.0105,0.0031,0.0233,0.024,0.0365,0.0408,0.0371,0.037,0.0352,0.0348,0.0383,0.0381,0.0381,0.038,0,-0.0888,-0.0889,-0.0914,-0.0906,-0.0905,-0.0914,-0.0873,-0.0852,-0.0773,-0.0698,-0.0668,-0.0493,-0.03,-0.0111,0.0129,0.0238,0.042,0.0489,0.0422,0.0454,0.05,0.0489,0.0623,0.0625,0.0626,0.0628,0.0629,0,-0.0916,-0.0939,-0.0958,-0.0978,-0.098,-0.0982,-0.0978,-0.0909,-0.0874,-0.0718,-0.0683,-0.0483,-0.0327,0.0015,0.0244,0.0487,0.0486,0.0593,0.0571,0.0499,0.0528,0.0515,0.0503,0.0583,0.0583,0.0584,0.0584,0,-0.0961,-0.0972,-0.0996,-0.1048,-0.1065,-0.1077,-0.1061,-0.1047,-0.0943,-0.0867,-0.0717,-0.0579,-0.0225,0.0049,0.0357,0.0495,0.0546,0.0612,0.0587,0.0514,0.047,0.0495,0.0483,0.0589,0.0589,0.0588,0.0588,0.0588,-0.0989,-0.1025,-0.1066,-0.1113,-0.1142,-0.1174,-0.1171,-0.1137,-0.1089,-0.0954,-0.0782,-0.0554,-0.0238,0.0191,0.0423,0.0627,0.0629,0.0675,0.067,0.0666,0.0628,0.0588,0.0721,0.0722,0.0722,0.0722,0.0722,0,-0.1022,-0.1067,-0.1122,-0.1183,-0.123,-0.1228,-0.122,-0.1184,-0.1134,-0.0985,-0.0823,-0.0474,-0.0152,0.0162,0.0495,0.07,0.068,0.0721,0.0659,0.0654,0.065,0.0608,0.0698,0.0698,0.0699,0.0699,0,0,-0.104,-0.1111,-0.1151,-0.1252,-0.1287,-0.1312,-0.1305,-0.1242,-0.1123,-0.0976,-0.0804,-0.0555,-0.0136,0.0086,0.0362,0.0537,0.0533,0.0547,0.0549,0.044,0.0432,0.0612,0.0541,0,0,0,0,0]}],[{"header":{"parameterUnit":"m.s-1","parameterCategory":2,"la1":30.2991,"la2":30.254,"lo1":-89.0895,"lo2":-89.0444,"dy":0.0017,"dx":0.0017,"nx":28,"ny":28,"refTime":"2025-07-24T09:00:00:Z","depth":"4","parameterNumber":2,"parameterNumberName":"U-component_of_CURRENTS"},"data":[0,0,0,0,0,0,0,0,0,0,0,0,0,0,0,0,0,0,0,0,0,0,0,0,0,0,0,0,0,0,0,0,0,0,0,0,0,0,0,0,0,0,0,0,0,0,0,0,0,0,0,0,0,0,0,0,0,0,-0.1806,-0.1806,0,-0.1773,-0.1773,-0.1773,-0.1794,-0.1795,-0.1796,-0.1797,-0.1751,-0.1749,-0.1747,0,0,0,0,0,0,0,0,0,0,0,0,0,-0.1787,-0.1788,-0.1807,-0.1806,-0.1806,-0.1773,-0.1773,-0.1772,-0.1794,-0.1795,-0.1796,-0.1797,-0.1752,-0.175,-0.1747,0,0,0,0,0,0,0,0,0,0,0,0,0,-0.178,-0.1788,-0.1807,-0.1812,-0.1812,-0.1773,-0.1773,-0.1772,-0.1794,-0.1795,-0.1796,-0.1798,-0.1753,-0.175,-0.1747,-0.17,0,0,-0.1737,-0.1736,0,0,0,0,0,0,0,0,-0.178,-0.1781,-0.1811,-0.1811,-0.1811,-0.1788,-0.1749,-0.1747,-0.1793,-0.1801,-0.1797,-0.1798,-0.1761,-0.1757,-0.1749,-0.1698,-0.1696,-0.1737,-0.1735,-0.1734,-0.1733,0,0,0,0,0,0,0,-0.1781,-0.1781,-0.1794,-0.1811,-0.1811,-0.1781,-0.1782,-0.1749,-0.1774,-0.1801,-0.1802,-0.1797,-0.1761,-0.1752,-0.1749,-0.1695,-0.1737,-0.1735,-0.1733,-0.1731,-0.1734,-0.1735,0,0,0,0,0,0,-0.1787,-0.1783,-0.1795,-0.1793,-0.1798,-0.178,-0.1782,-0.1795,-0.1775,-0.1773,-0.1795,-0.1798,-0.1757,-0.1752,-0.1747,-0.179,-0.1734,-0.1731,-0.1729,-0.1732,-0.1734,-0.1736,0,0,0,0,0,0,-0.1787,-0.1789,-0.1797,-0.1785,-0.1784,-0.178,-0.1794,-0.1794,-0.1816,-0.1771,-0.1769,-0.1821,-0.1758,-0.1751,-0.1758,-0.1784,-0.173,-0.1727,-0.1729,-0.1732,-0.1735,-0.1811,0,0,0,0,0,0,-0.1787,-0.179,-0.1813,-0.1786,-0.1785,-0.1798,-0.1792,-0.1792,-0.1808,-0.1811,-0.1791,-0.1787,-0.1758,-0.1763,-0.1755,-0.1779,-0.1724,-0.1727,-0.1731,-0.1734,-0.1806,-0.1816,-0.1825,0,0,0,0,0,-0.1787,-0.1795,-0.1815,-0.1816,-0.1814,-0.1799,-0.1796,-0.1796,-0.1808,-0.1822,-0.182,-0.179,-0.178,-0.1761,-0.1751,-0.1776,-0.1725,-0.173,-0.1734,-0.1802,-0.1814,-0.1825,0,0,0,0,0,0,-0.1784,-0.1797,-0.1818,-0.1829,-0.1833,-0.1803,-0.1809,-0.1813,-0.182,-0.1834,-0.1801,-0.1796,-0.1814,-0.1787,-0.1768,-0.1792,-0.1752,-0.1755,-0.1808,-0.1819,-0.1828,-0.1831,-0.1722,0,0,0,0,0,-0.1799,-0.182,-0.1822,-0.1833,-0.1841,-0.1836,-0.1835,-0.1841,-0.1834,-0.1841,-0.1829,-0.1823,-0.1817,-0.1815,-0.1801,-0.1802,-0.177,-0.1818,-0.1827,-0.1835,-0.1834,-0.1828,-0.1836,-0.175,-0.175,-0.175,0,0,-0.1796,-0.1808,-0.1818,-0.1837,-0.184,-0.1851,-0.1841,-0.1849,-0.1868,-0.1831,-0.1859,-0.1851,-0.1826,-0.1839,-0.1845,-0.1823,-0.1842,-0.184,-0.1847,-0.1842,-0.1833,-0.1841,-0.1848,-0.1753,-0.1753,-0.1752,0,0,-0.1786,-0.1822,-0.1838,-0.1852,-0.1871,-0.1872,-0.1886,-0.1887,-0.1906,-0.1921,-0.1912,-0.1927,-0.1908,-0.1904,-0.1896,-0.1947,-0.1892,-0.195,-0.1992,-0.1987,-0.1994,-0.1999,-0.1959,-0.196,-0.1953,-0.1953,-0.1953,0,-0.1788,-0.1812,-0.1835,-0.1855,-0.1867,-0.189,-0.1905,-0.1922,-0.1928,-0.1941,-0.1947,-0.1952,-0.1938,-0.1951,-0.198,-0.1966,-0.1942,-0.1948,-0.1998,-0.2002,-0.2006,-0.1964,-0.1964,-0.1957,-0.1957,-0.1956,-0.1956,0,-0.1784,-0.182,-0.1826,-0.1874,-0.1891,-0.1905,-0.1936,-0.1967,-0.1994,-0.2002,-0.2037,-0.2031,-0.203,-0.2041,-0.2023,-0.2054,-0.2019,-0.201,-0.1964,-0.2019,-0.1971,-0.197,-0.1963,-0.1962,-0.196,-0.1959,0,0,-0.1746,-0.1814,-0.1822,-0.1852,-0.1907,-0.1912,-0.1963,-0.1997,-0.2023,-0.206,-0.208,-0.2107,-0.2112,-0.2105,-0.2098,-0.2104,-0.2115,-0.2077,-0.2075,-0.2028,-0.2079,-0.1936,-0.192,-0.2116,-0.2117,-0.2117,-0.2029,0,-0.1742,-0.1782,-0.1819,-0.1863,-0.1886,-0.1936,-0.1972,-0.2014,-0.2049,-0.2076,-0.2105,-0.2119,-0.2135,-0.2137,-0.2155,-0.2121,-0.2118,-0.2138,-0.204,-0.2036,-0.1896,-0.1916,-0.2119,-0.2027,-0.2027,-0.2027,-0.2026,0,-0.1727,-0.176,-0.1802,-0.1866,-0.1882,-0.1916,-0.1977,-0.2012,-0.2066,-0.209,-0.213,-0.214,-0.2168,-0.2167,-0.2157,-0.217,-0.2135,-0.211,-0.2106,-0.1943,-0.1892,-0.1965,-0.2023,-0.2023,-0.2024,-0.2024,-0.2024,0,-0.1678,-0.1746,-0.1782,-0.1806,-0.188,-0.1915,-0.1956,-0.2017,-0.2041,-0.2098,-0.2106,-0.2151,-0.2154,-0.2151,-0.212,-0.2138,-0.208,-0.2089,-0.1925,-0.1913,-0.2033,-0.2029,-0.2072,-0.2072,-0.2072,-0.2072,-0.2073,0,-0.1644,-0.1677,-0.1769,-0.1787,-0.1827,-0.1893,-0.1934,-0.1981,-0.2033,-0.2038,-0.2111,-0.2101,-0.2153,-0.2128,-0.2109,-0.1998,-0.2069,-0.1921,-0.1883,-0.2066,-0.2067,-0.2031,-0.2027,-0.2069,-0.207,-0.207,-0.2071,0,-0.1577,-0.1642,-0.1686,-0.1776,-0.1805,-0.1833,-0.1911,-0.1924,-0.1995,-0.1999,-0.2012,-0.206,-0.2019,-0.2032,-0.1996,-0.1947,-0.1875,-0.1815,-0.1983,-0.1958,-0.1713,-0.1715,-0.1621,-0.1615,-0.161,-0.1606,-0.1603,0,-0.1541,-0.1561,-0.1662,-0.168,-0.1725,-0.1781,-0.1802,-0.1891,-0.1891,-0.1945,-0.1916,-0.1917,-0.1927,-0.1751,-0.1801,-0.1727,-0.1716,-0.167,-0.1727,-0.1696,-0.1669,-0.1678,-0.1687,-0.1595,-0.1594,-0.1593,-0.1591,0,-0.1461,-0.1515,-0.1548,-0.1583,-0.1619,-0.1644,-0.1683,-0.1672,-0.1743,-0.1835,-0.1754,-0.1721,-0.1661,-0.1636,-0.158,-0.1544,-0.1703,-0.1619,-0.163,-0.1684,-0.1664,-0.1644,-0.1657,-0.1575,-0.1577,-0.1579,-0.158,0,-0.1397,-0.1394,-0.1436,-0.1448,-0.1487,-0.146,-0.1517,-0.1498,-0.1513,-0.1586,-0.1555,-0.1564,-0.1624,-0.1536,-0.1491,-0.1435,-0.1427,-0.14,-0.1422,-0.1442,-0.1428,-0.138,-0.1157,0,0,0,0,0,-0.1314,-0.128,-0.1287,-0.1278,-0.1312,-0.1327,-0.1396,-0.1454,-0.1538,-0.1431,-0.1486,-0.1422,-0.1355,-0.1376,-0.1277,-0.1416,-0.1436,-0.1298,-0.1419,-0.1481,-0.1501,-0.1505,0,0,0,0,0,0,-0.1247,-0.1248,-0.123,-0.112,-0.1087,-0.1094,-0.1134,-0.1211,-0.1162,-0.1268,-0.1232,-0.1326,-0.1278,-0.1365,-0.1238,-0.1244,-0.1289,-0.1327,-0.1323,-0.147,-0.1488,-0.1504,-0.1515,0,0,0,0,0]},{"header":{"parameterUnit":"m.s-1","parameterCategory":2,"la1":30.2991,"la2":30.254,"lo1":-89.0895,"lo2":-89.0444,"dy":0.0017,"dx":0.0017,"nx":28,"ny":28,"refTime":"2025-07-24T09:00:00:Z","depth":"4","parameterNumber":3,"parameterNumberName":"V-component_of_CURRENTS"},"data":[0,0,0,0,0,0,0,0,0,0,0,0,0,0,0,0,0,0,0,0,0,0,0,0,0,0,0,0,0,0,0,0,0,0,0,0,0,0,0,0,0,0,0,0,0,0,0,0,0,0,0,0,0,0,0,0,0,0,-0.0301,-0.03,0,-0.0243,-0.0243,-0.0242,-0.0225,-0.0226,-0.0226,-0.0226,-0.0173,-0.0171,-0.017,0,0,0,0,0,0,0,0,0,0,0,0,0,-0.036,-0.0359,-0.0301,-0.03,-0.0299,-0.0244,-0.0243,-0.0242,-0.0225,-0.0226,-0.0226,-0.0226,-0.0174,-0.0172,-0.017,0,0,0,0,0,0,0,0,0,0,0,0,0,-0.0323,-0.0359,-0.0301,-0.0283,-0.0281,-0.0244,-0.0243,-0.0242,-0.0225,-0.0226,-0.0226,-0.0226,-0.0174,-0.0172,-0.0169,-0.0149,0,0,-0.0162,-0.0161,0,0,0,0,0,0,0,0,-0.0325,-0.0321,-0.0287,-0.0284,-0.0282,-0.0241,-0.0244,-0.0211,-0.0225,-0.0248,-0.0226,-0.0226,-0.0195,-0.0191,-0.0181,-0.0147,-0.0145,-0.0162,-0.0161,-0.016,-0.0159,0,0,0,0,0,0,0,-0.0327,-0.0323,-0.028,-0.0286,-0.0283,-0.0265,-0.0261,-0.0238,-0.0222,-0.0246,-0.0244,-0.0236,-0.0194,-0.0184,-0.018,-0.0144,-0.0162,-0.016,-0.0159,-0.0158,-0.0048,-0.0047,0,0,0,0,0,0,-0.0333,-0.0325,-0.0281,-0.0278,-0.0303,-0.0264,-0.0259,-0.0255,-0.0222,-0.0217,-0.0235,-0.0235,-0.0188,-0.0183,-0.0178,-0.0138,-0.016,-0.0157,-0.0156,-0.005,-0.0048,-0.0047,0,0,0,0,0,0,-0.0335,-0.033,-0.0284,-0.0299,-0.0292,-0.0263,-0.0258,-0.0253,-0.0246,-0.0214,-0.0209,-0.0233,-0.0188,-0.0181,-0.0149,-0.0137,-0.0156,-0.0154,-0.0052,-0.0049,-0.0047,-0.0068,0,0,0,0,0,0,-0.0337,-0.0331,-0.034,-0.03,-0.0291,-0.0266,-0.0257,-0.0252,-0.0239,-0.0239,-0.021,-0.0205,-0.0187,-0.0153,-0.0147,-0.0134,-0.0152,-0.0054,-0.0051,-0.0048,-0.0069,-0.0066,-0.0064,0,0,0,0,0,-0.0339,-0.0349,-0.0341,-0.0336,-0.0301,-0.0266,-0.026,-0.0241,-0.0239,-0.0236,-0.0208,-0.0206,-0.013,-0.015,-0.0143,-0.0129,-0.0055,-0.0051,-0.0048,-0.007,-0.0067,-0.0064,0,0,0,0,0,0,-0.0379,-0.0347,-0.0337,-0.0337,-0.0305,-0.0263,-0.0263,-0.0244,-0.022,-0.0222,-0.0193,-0.0185,-0.0152,-0.0132,-0.0154,-0.0085,-0.009,-0.0085,-0.0108,-0.0105,-0.0103,-0.0128,-0.015,0,0,0,0,0,-0.0391,-0.0391,-0.0349,-0.0349,-0.0337,-0.0301,-0.0288,-0.0269,-0.0237,-0.0228,-0.0204,-0.017,-0.0131,-0.0114,-0.0083,-0.005,-0.0031,-0.0032,-0.003,-0.0028,-0.0041,0.0014,0.0019,-0.0036,-0.0036,-0.0036,0,0,-0.0405,-0.0389,-0.0388,-0.0358,-0.0336,-0.0319,-0.0295,-0.0275,-0.0257,-0.0225,-0.0204,-0.0167,-0.012,-0.0081,-0.0063,-0.0065,0.0,-0.0024,-0.0023,-0.0037,0.0018,0.0023,0.0027,-0.0033,-0.0034,-0.0034,0,0,-0.0426,-0.042,-0.0423,-0.0401,-0.0368,-0.034,-0.0335,-0.0292,-0.0274,-0.0239,-0.0205,-0.0159,-0.0113,-0.0068,-0.004,-0.0004,0.0008,0.0007,-0.0002,0.0052,0.0056,0.006,0.0092,0.0098,0.0011,0.0011,0.0011,0,-0.0445,-0.0442,-0.0417,-0.041,-0.0398,-0.0352,-0.0345,-0.0314,-0.0264,-0.0247,-0.0237,-0.0145,-0.0104,-0.0043,-0.0025,-0.0001,0.0019,-0.0022,0.0052,0.0056,0.006,0.0092,0.01,0.0011,0.0011,0.0011,0.0011,0,-0.0458,-0.046,-0.046,-0.0438,-0.0421,-0.0408,-0.036,-0.0339,-0.031,-0.0273,-0.0216,-0.0149,-0.0098,-0.0062,-0.0034,0.0024,0.0025,0.0043,0.0035,0.0064,0.0097,0.0105,0.001,0.001,0.001,0.001,0,0,-0.0481,-0.0473,-0.0473,-0.0477,-0.0437,-0.0424,-0.0396,-0.0353,-0.034,-0.0277,-0.025,-0.0156,-0.0125,-0.009,-0.0037,0.002,0.0079,0.0038,0.0041,0.0052,0.0178,0.0155,0.0162,0.0104,0.0106,0.0107,0.0188,0,-0.0497,-0.0509,-0.0491,-0.0495,-0.0496,-0.0456,-0.0438,-0.0395,-0.0351,-0.0314,-0.0227,-0.0181,-0.0133,-0.0107,-0.0042,0.0044,0.01,0.0054,0.0163,0.0166,0.0129,0.0171,0.0111,0.0194,0.0196,0.0197,0.0198,0,-0.0509,-0.0519,-0.0537,-0.0536,-0.0532,-0.0529,-0.0502,-0.0475,-0.0406,-0.0372,-0.0309,-0.0249,-0.0156,-0.0118,0.0032,-0.0004,0.0079,0.0151,0.0156,0.0142,0.0159,0.0163,0.0214,0.0212,0.0211,0.021,0.0209,0,-0.0543,-0.0548,-0.0572,-0.057,-0.0558,-0.0564,-0.0552,-0.0501,-0.048,-0.0414,-0.0391,-0.0283,-0.0224,-0.011,0.0036,0.0032,0.0197,0.0214,0.0274,0.0273,0.0274,0.0269,0.0322,0.0322,0.0322,0.0321,0.0321,0,-0.0562,-0.0581,-0.06,-0.0612,-0.0642,-0.0615,-0.0625,-0.0596,-0.0549,-0.0522,-0.0432,-0.038,-0.0218,-0.0103,0.0019,0.0165,0.0187,0.0271,0.0296,0.0265,0.0259,0.028,0.0274,0.0324,0.0324,0.0323,0.0323,0,-0.059,-0.06,-0.0635,-0.0652,-0.0662,-0.0687,-0.0685,-0.0684,-0.0635,-0.0598,-0.0579,-0.0445,-0.0297,-0.0137,0.0063,0.0143,0.0286,0.0337,0.0278,0.0298,0.0326,0.0318,0.0398,0.0398,0.0398,0.0398,0.0398,0,-0.0603,-0.0627,-0.0679,-0.0713,-0.0728,-0.0757,-0.0774,-0.0737,-0.0725,-0.0627,-0.0609,-0.0464,-0.0361,-0.0107,0.006,0.0273,0.031,0.0364,0.0358,0.0319,0.0336,0.0329,0.0321,0.0398,0.0398,0.0398,0.0398,0,-0.0632,-0.066,-0.0695,-0.0771,-0.0813,-0.0845,-0.0861,-0.0852,-0.0792,-0.0745,-0.0621,-0.0476,-0.0308,-0.0109,0.0057,0.0215,0.0313,0.0365,0.0366,0.0361,0.032,0.0335,0.0328,0.0398,0.0398,0.0398,0.0398,0,-0.0659,-0.0701,-0.0761,-0.082,-0.0882,-0.092,-0.0916,-0.0882,-0.0853,-0.0729,-0.0684,-0.0488,-0.0359,-0.0136,0.002,0.0163,0.02,0.0231,0.024,0.0242,0.0172,0.0096,0.0128,0,0,0,0,0,-0.0681,-0.0735,-0.0802,-0.087,-0.093,-0.0959,-0.0968,-0.0946,-0.0878,-0.08,-0.0736,-0.0571,-0.0317,-0.0197,-0.0057,0.0003,0.0205,0.0167,0.024,0.0398,0.0398,0.034,0,0,0,0,0,0,-0.07,-0.0774,-0.081,-0.0901,-0.0946,-0.1006,-0.1012,-0.0965,-0.0904,-0.0811,-0.0671,-0.056,-0.0312,-0.0398,-0.0061,-0.0014,0.0044,0.0302,0.0304,0.0398,0.0398,0.0398,0.0338,0,0,0,0,0]}]]